Location: Houhaj�rvi
(61.2833°N, 23.0000°E)
Time: 14:51:10
(UTC+00:00)

Daily predictions for brighter satellites

Satellite Brightness Start Highest point End
(mag) Time Altitude Azimuth Time Altitude Azimuth Time Altitude Azimuth
CSL-04 Debris 4.2 16:17:11 10° SSE 16:22:39 75° ENE 16:28:10 10° NNW
ADEOS Rocket 4.1 16:17:43 10° NNE 16:24:48 37° E 16:31:48 10° SSE
USA 238 DEB 3.9 16:18:08 10° WNW 16:25:10 88° NNE 16:32:30 10° ESE
USA 238 3.9 16:18:14 10° WNW 16:25:16 88° NNE 16:32:35 10° ESE
Cosmos 1666 Rocket 3.6 16:22:45 10° S 16:27:11 64° E 16:31:38 10° NNE
Cosmos 1933 Rocket 4.3 16:24:04 10° SSE 16:27:54 30° E 16:31:43 10° NNE
Cosmos 1937 Rocket 3.5 16:22:45 10° NNW 16:28:04 69° NE 16:33:17 10° SE
Cosmos 2278 Rocket 2.9 16:23:37 10° WSW 16:29:11 54° NW 16:34:46 10° NE
FREGAT/IRIS 3.9 16:28:01 10° ESE 16:30:04 19° ENE 16:32:06 10° NNE
IRS-1A Rocket 4.5 16:25:27 10° SE 16:30:43 50° ENE 16:36:04 10° NNW
NOAA 11 4.2 16:25:38 10° SSE 16:31:06 86° ENE 16:36:34 10° NNW
Cosmos 1238 Rocket 4.2 16:25:05 10° SSW 16:31:47 87° WNW 16:38:11 10° NNE
H-2A R/B 4.5 16:29:29 10° N 16:32:52 22° NW 16:36:12 10° W
Cosmos 1864 Rocket 4.5 16:27:43 10° S 16:33:51 79° E 16:40:01 10° NNE
Cosmos 1862 3.3 16:29:53 10° S 16:33:52 84° ESE 16:37:52 10° NNE
Cosmos 2227 Rocket 2.5 16:29:33 10° NW 16:35:05 50° NNE 16:40:36 10° ESE
Cosmos 1340 3.2 16:33:19 10° SSE 16:36:49 37° E 16:40:20 10° NNE
NOSS 3-1 (C) 3.8 16:31:17 10° SSW 16:36:52 50° SE 16:43:28 10° ENE
Genesis I 3.4 16:32:58 10° WNW 16:36:53 74° SSW 16:40:44 10° SE
Cosmos 1346 Rocket 3.4 16:33:35 10° SSE 16:37:09 33° E 16:40:43 10° NNE
Cosmos 2082 4.3 16:35:29 10° NW 16:40:59 44° NNE 16:46:28 10° E
Cosmos 2061 Rocket 4.2 16:35:18 10° SSW 16:41:42 83° WNW 16:48:05 10° NNE
Terra 4.0 16:42:21 10° NNE 16:42:44 10° NNE 16:43:07 10° NNE
Cosmos 2221 Rocket 4.3 16:39:48 10° N 16:43:59 34° ENE 16:48:06 10° SE
Cosmos 1656 Rocket 4.4 16:41:10 10° S 16:46:03 32° ESE 16:51:01 10° NE
Cosmos 1802 Rocket 4.4 16:40:34 10° SSW 16:46:56 72° WNW 16:53:25 10° NNE
Sich 1 3.3 16:43:37 10° SSW 16:47:53 72° WNW 16:52:11 10° NNE
Cosmos 2016 Rocket 4.2 16:43:38 10° SSW 16:49:46 77° WNW 16:56:02 10° NNE
Meteor 1-18 Rocket 4.3 16:45:54 10° NNW 16:51:53 74° ENE 16:57:44 10° SSE
SeaSat 1 3.4 16:47:32 10° NE 16:52:16 46° NNW 16:56:58 10° WSW
Cosmos 372 Rocket 4.2 16:47:35 10° NNW 16:52:48 57° NE 16:57:58 10° SE
H-2A R/B 2.4 16:49:03 10° SE 16:54:19 52° ENE 16:59:37 10° NNW
COSMOS 2487 4.2 16:59:02 10° NW 17:02:15 36° WSW 17:05:27 10° S
Cosmos 2233 Rocket 4.0 16:56:47 10° S 17:02:58 82° E 17:09:16 10° NNE
Cosmos 2219 3.2 16:57:39 10° NW 17:03:26 77° NE 17:09:13 10° SE
Cosmos 1092 Rocket 4.3 16:57:46 10° N 17:03:55 48° ENE 17:10:03 10° SE
NOSS 8 (A) 4.2 17:02:48 10° WSW 17:05:50 90° SW 17:08:36 14° ENE
Okean 1-7 3.0 17:02:42 10° NNW 17:07:03 86° ENE 17:11:24 10° SSE
Okean 1 3.2 17:03:11 10° NNW 17:07:14 80° ENE 17:11:14 10° SSE
Cosmos 921 Rocket 3.1 17:02:42 10° SSW 17:07:14 87° WNW 17:11:46 10° NNE
Cosmos 1470 Rocket 3.5 17:03:24 10° S 17:07:47 73° E 17:12:14 10° NNE
Lacrosse 5 rocket 2.4 17:04:07 10° W 17:08:25 44° SSW 17:12:32 11° ESE
Cosmos 1844 Rocket 4.0 17:04:15 10° WNW 17:09:18 32° N 17:14:22 10° ENE
Cosmos 1867 4.0 17:04:06 10° W 17:09:32 59° N 17:14:15 14° ENE
COSMO-SKYMED 1 2.6 17:05:24 10° NNE 17:09:48 87° ESE 17:14:09 10° SSW
Meteor 2-4 Rocket 3.9 17:04:50 10° NNW 17:10:42 61° ENE 17:16:35 10° SSE
Resurs 1-3 4.3 17:07:13 11° ESE 17:10:59 33° ENE 17:14:57 10° N
NOSS 2-3 (E) 4.4 17:07:29 10° SSW 17:11:50 41° SE 17:16:46 12° ENE
Cosmos 2263 Rocket 3.2 17:08:34 10° NW 17:13:46 35° NNE 17:18:03 14° ENE
USA 234 3.5 17:08:00 13° E 17:13:52 63° S 17:20:23 10° WSW
MOS 1 4.3 17:09:18 10° SSE 17:14:55 73° ENE 17:20:35 10° NNW
Cosmos 405 3.4 17:11:29 10° NNW 17:15:02 66° WSW 17:18:33 10° S
NOSS 3-2 (A) 4.1 17:08:15 10° WNW 17:15:12 77° SSW 17:23:13 10° SE
CZ-2C R/B 4.2 17:12:23 10° NE 17:15:23 15° ENE 17:15:35 15° E
Lacrosse 5 3.7 17:13:25 10° SSE 17:15:42 13° SE 17:16:24 13° ESE
HJ-1C 3.4 17:12:49 10° SSE 17:16:08 80° WSW 17:19:28 10° NNW
NOSS 3-2 (C) 3.9 17:12:08 10° WNW 17:19:04 85° SSW 17:26:22 13° ESE
Cosmos 1898 Rocket 4.4 17:15:49 10° NW 17:20:51 52° WSW 17:25:52 10° S
Cosmos 2369 Rocket 2.2 17:16:37 10° SSW 17:22:19 78° SE 17:28:03 10° NE
Meteor 1-19 Rocket 4.3 17:16:56 10° NNW 17:22:50 89° WSW 17:28:31 10° SSE
Cosmos 2297 4.3 17:18:00 10° WSW 17:23:36 59° NW 17:29:12 10° NE
Cosmos 1703 Rocket 4.1 17:19:35 10° NNW 17:24:01 65° W 17:28:28 10° S
SWAS 4.4 17:20:05 10° NW 17:24:25 88° SW 17:28:19 12° SE
SJ 16-02 2.4 17:21:13 10° NW 17:25:28 47° WSW 17:29:41 10° S
Cosmos 2298 Rocket 4.0 17:20:22 10° NNW 17:25:45 80° NE 17:31:07 10° SE
GP-B 4.2 17:24:08 18° ESE 17:26:16 25° ENE 17:29:55 10° NNE
Meteor 1-4 Rocket 3.8 17:23:20 10° N 17:26:27 25° ENE 17:27:34 22° E
NOSS 2-3 (D) 4.3 17:22:29 10° SSW 17:26:54 45° SE 17:31:21 15° ENE
CENTAUR R/B 3.1 17:20:51 10° WNW 17:28:15 87° SSW 17:35:26 16° ESE
USA 229 DEB 3.7 17:22:56 10° SW 17:29:37 74° SSE 17:36:13 12° ENE
USA 229 3.7 17:23:04 10° SW 17:29:44 74° SSE 17:36:18 12° ENE
Cosmos 1072 Rocket 4.5 17:23:56 10° S 17:30:11 65° E 17:36:23 10° NNE
Cosmos 841 Rocket 4.5 17:26:38 10° SSE 17:30:40 23° E 17:34:42 10° NE
Cosmos 1763 Rocket 4.1 17:26:11 10° S 17:30:55 35° ESE 17:35:43 10° NE
OPS 6432 4.1 17:28:34 10° WNW 17:31:29 76° SSW 17:33:11 24° ESE
Cosmos 1900 4.5 17:27:22 10° WNW 17:32:15 63° NNE 17:35:26 21° E
ARGOS 3.1 17:27:02 10° SSE 17:32:28 77° ENE 17:37:55 10° NNW
Cosmos 1602 3.9 17:29:03 10° S 17:32:46 47° E 17:36:30 10° NNE
NOSS 5 (C) 4.4 17:31:08 10° WNW 17:34:07 57° N 17:35:30 27° ENE
Meteor 1-25 Rocket 4.1 17:28:39 10° S 17:34:15 69° ESE 17:39:49 10° NNE
Aureole 2 Rocket 2.7 17:31:52 10° SW 17:34:33 49° NW 17:37:21 10° NNE
Resurs 01 Rocket 2.1 17:33:49 20° ESE 17:36:27 39° ENE 17:40:37 10° N
USA 186 1.4 17:34:04 12° SSE 17:36:38 82° ENE 17:39:43 10° NNW
NOSS 3-1 (A) 3.6 17:30:53 10° SW 17:36:44 64° SE 17:43:01 13° ENE
Cosmos 1513 Rocket 4.4 17:31:03 10° S 17:37:07 67° E 17:43:20 10° NNE
SPOT 3 Rocket 3.5 17:33:27 10° SE 17:38:38 68° ENE 17:43:51 10° NNW
ARGOS Delta rocket 3.6 17:34:31 10° SSE 17:38:55 65° ENE 17:43:30 10° N
Cosmos 1500 4.4 17:40:16 23° ENE 17:40:16 23° ENE 17:42:51 10° NNE
Cosmos 1869 Rocket 3.6 17:36:18 10° S 17:40:33 51° E 17:44:48 10° NNE
Cosmos 1975 Rocket 4.4 17:38:07 10° N 17:41:30 21° NE 17:42:14 21° ENE
Cosmos 2150 Rocket 4.1 17:37:06 10° NW 17:42:32 90° WSW 17:47:51 11° SSE
ATLAS 3B R/B 2.6 17:36:47 10° WNW 17:43:29 86° NNE 17:48:16 21° ESE
Cosmos 389 Rocket 2.7 17:40:32 10° N 17:44:07 52° ENE 17:45:53 26° SE
Cosmos 1125 Rocket 3.5 17:42:36 10° NNW 17:47:57 72° NE 17:51:43 20° SE
CZ-2C R/B 3.2 17:42:18 10° SSE 17:48:04 89° ENE 17:53:38 10° NNW
Cosmos 1733 Rocket 3.9 17:48:05 27° E 17:48:14 27° E 17:51:55 10° NNE
Cosmos 1627 Rocket 4.4 17:43:23 10° NNW 17:49:37 66° ENE 17:55:43 10° SSE
CZ-4 R/B 4.2 17:46:33 10° SW 17:49:49 22° W 17:53:04 10° NW
Cosmos 1891 Rocket 4.5 17:43:49 10° S 17:50:05 78° E 17:56:32 10° NNE
Cosmos 1570 Rocket 4.5 17:46:41 10° S 17:51:29 37° ESE 17:56:21 10° NE
Okean 3 3.4 17:47:45 10° NNW 17:52:01 90° ENE 17:56:14 10° SSE
Lacrosse 4 Rocket 2.5 17:48:17 10° W 17:52:28 44° NNW 17:56:00 15° NE
USA 116 4.1 17:48:49 10° NNE 17:52:44 71° WNW 17:57:10 10° SSW
Cosmos 1378 Rocket 3.9 17:48:48 10° N 17:52:58 44° ENE 17:54:41 29° ESE
Meteor 1-13 Rocket 4.2 17:49:26 10° NNW 17:55:24 82° ENE 18:01:13 10° SSE
Cosmos 1066 Rocket 4.4 17:50:40 10° NNW 17:56:20 54° ENE 18:00:02 22° SE
Ariane Rocket 3.8 17:51:32 10° S 17:56:32 55° WSW 18:01:35 10° NNW
Cosmos 2263 4.2 17:51:06 10° SW 17:56:54 90° N 18:02:40 10° NE
Cosmos 540 Rocket 4.1 17:52:51 10° SSE 17:57:18 30° ESE 18:01:47 10° NE
SJ-6B 2.8 17:54:04 10° SSE 17:57:51 77° WSW 18:01:44 10° NNW
Cosmos 489 Rocket 4.5 17:53:08 10° SSW 17:59:22 63° ESE 18:05:36 10° NE
Cosmos 2297 Rocket 2.4 17:54:38 10° NW 18:00:19 73° SW 18:04:59 15° SSE
FREGAT/IRIS 3.5 17:57:49 10° S 18:00:28 44° W 18:03:08 10° NNW
NOSS 2-3 (C) 4.0 17:56:12 10° SW 18:00:53 64° SE 18:04:40 21° ENE
Nadezhda 4 Rocket 4.3 17:55:28 10° NNW 18:01:44 70° W 18:08:01 10° S
Cosmos 1943 Rocket 2.6 17:59:20 10° WSW 18:04:51 63° NW 18:10:22 10° NE
Cosmos 1933 Rocket 4.3 18:01:15 10° SSW 18:05:35 54° WNW 18:09:54 10° N
CZ-2C R/B 4.1 18:01:16 10° NNE 18:05:39 39° E 18:10:04 10° SSE
SPOT 5 4.0 18:06:06 25° ENE 18:07:15 28° NE 18:11:27 10° N
Cosmos 2026 Rocket 3.9 18:01:30 10° NNW 18:07:46 77° ENE 18:13:44 11° SSE
SL-08 RB Rocket 3.7 18:04:26 10° SSE 18:08:54 81° WSW 18:13:24 10° NNW
ADEOS Rocket 3.7 18:03:13 10° NNE 18:11:01 85° WNW 18:18:47 10° SSW
Cosmos 2266 Rocket 4.5 18:06:06 10° N 18:12:04 41° ENE 18:14:30 30° ESE
Cosmos 1340 4.3 18:08:59 10° SW 18:12:29 35° WNW 18:16:01 10° N
Spot 2 Rocket 3.7 18:11:12 33° ESE 18:13:07 50° ENE 18:18:04 10° NNW
Cosmos 1346 Rocket 4.0 18:09:40 10° SW 18:13:28 43° WNW 18:17:15 10° N
Cosmos 2278 Rocket 3.6 18:09:16 10° WNW 18:14:22 33° N 18:18:53 13° NE
USA 238 DEB 4.5 18:09:07 10° WNW 18:15:54 50° SW 18:21:52 15° SSE
USA 238 4.5 18:09:13 10° WNW 18:16:00 50° SW 18:21:56 15° SSE
SPOT 1/Viking Rocket 4.1 18:14:41 33° E 18:16:02 39° NE 18:20:49 10° NNW
Cosmos 1464 Rocket 4.2 18:10:08 10° SSW 18:16:32 80° WNW 18:22:58 10° NNE
Terra 3.0 18:18:37 25° ENE 18:19:05 25° NE 18:22:58 10° N
Cosmos 2227 Rocket 2.5 18:13:48 10° NW 18:19:24 64° WSW 18:23:26 19° SSE
Meteor 1-5 Rocket 4.3 18:15:12 10° S 18:20:37 55° E 18:26:15 10° NNE
Meteor 1-23 Rocket 4.1 18:15:38 10° NNW 18:21:19 77° ENE 18:24:49 24° SSE
Cosmos 2221 Rocket 4.4 18:17:59 10° NNW 18:22:24 52° W 18:26:46 10° S
Cosmos 1441 Rocket 4.5 18:26:55 28° NE 18:26:55 28° NE 18:29:03 10° NNE
Cosmos 2082 3.8 18:19:49 10° NW 18:25:34 80° SW 18:28:37 29° SSE
Cosmos 1674 Rocket 3.5 18:21:12 10° NNW 18:25:43 88° W 18:28:02 28° SSE
Orbus 7S? 3.6 18:21:04 10° WSW 18:25:47 42° S 18:25:53 42° S
MetOp-B 4.1 18:23:53 34° SE 18:26:10 64° ENE 18:31:29 10° NNW
NOSS 3-1 (C) 3.6 18:21:21 10° WSW 18:27:28 85° NNW 18:32:10 23° ENE
SeaSat 1 4.2 18:25:01 10° NE 18:29:04 27° NNW 18:33:11 10° WNW
Cosmos 1656 Rocket 3.7 18:23:38 10° SW 18:29:14 81° NW 18:34:57 10° NE
Okean 2 4.1 18:27:02 10° N 18:30:37 37° NE 18:30:37 37° NE
Cosmos 1437 Rocket 3.6 18:27:23 10° N 18:30:51 37° NE 18:30:51 37° NE
H-2A R/B 3.2 18:28:41 10° S 18:33:53 45° W 18:39:08 10° NNW
Cosmos 2034 Rocket 4.1 18:32:52 10° SSW 18:39:03 77° WNW 18:45:16 10° NNE
Cosmos 1655 Rocket 4.0 18:33:09 10° NNW 18:39:35 69° ENE 18:42:26 35° SE
Cosmos 220 Rocket 3.8 18:37:48 10° SSW 18:42:06 87° SE 18:44:55 21° NE
GENESIS II 4.1 18:39:26 10° WNW 18:43:34 80° NNE 18:43:49 75° ENE
CARTOSAT-1 4.4 18:44:09 36° NE 18:44:09 36° NE 18:47:43 10° N
Cosmos 1536 4.3 18:46:16 25° NNE 18:46:16 25° NNE 18:48:09 10° NNE
Lacrosse 5 rocket 3.2 18:43:18 10° W 18:46:57 24° SW 18:48:11 21° SSW
Resurs 1-3 4.2 18:44:37 23° S 18:47:12 56° WSW 18:51:33 10° NNW
Cosmos 2142 Rocket 4.4 18:45:46 28° SSE 18:49:04 60° E 18:55:13 10° NNE
IGS 5A 3.8 18:52:10 52° NE 18:52:10 52° NE 18:55:49 10° NNW
Cosmos 468 Rocket 4.1 18:46:46 10° SW 18:52:06 76° NW 18:57:28 10° NNE
Cosmos 1867 3.6 18:48:09 10° WNW 18:53:40 74° NNE 18:54:55 53° E
Cosmos 2227 4.2 18:48:02 10° NW 18:53:42 70° NE 18:54:57 53° ESE
ERS-1 Rocket 3.1 18:54:06 53° E 18:54:29 54° ENE 18:59:25 10° NNW
Cosmos 1844 Rocket 3.6 18:49:18 10° NW 18:54:35 37° NNE 18:56:18 30° ENE
CZ-2C R/B 2.7 18:51:31 10° NNE 18:56:59 55° E 18:57:07 54° ESE
Cosmos 2279 Rocket 4.0 18:55:38 43° SE 18:57:22 58° E 19:03:27 10° NNE
Lacrosse 5 3.2 18:52:56 10° SSW 18:55:38 25° S 18:55:38 25° S
USA 234 3.5 18:55:21 40° SE 18:57:30 56° SSW 19:03:56 10° W
Cosmos 2263 Rocket 2.3 18:52:56 10° NW 18:58:38 66° NE 18:59:45 54° E
Meteor 1-4 Rocket 3.1 18:58:09 10° NNW 19:01:47 57° WSW 19:01:47 57° WSW
NOSS 2-3 (E) 4.1 18:57:16 10° WSW 19:02:11 86° NNW 19:04:13 43° ENE
Cosmos 1634 Rocket 3.9 18:56:23 10° S 19:02:43 84° ESE 19:09:05 10° NNE
GP-B 3.3 19:01:33 36° SSW 19:03:15 68° W 19:07:43 10° N
Cosmos 1814 Rocket 3.8 19:00:43 10° SSW 19:05:51 76° ESE 19:11:02 10° NE
Cosmos 2369 Rocket 3.2 19:01:19 10° W 19:06:48 45° NNW 19:12:18 10° NE
Cosmos 841 Rocket 3.3 19:06:45 10° SSW 19:11:56 87° ESE 19:17:11 10° NE
Cosmos 1763 Rocket 3.8 19:07:14 10° SW 19:12:30 68° NW 19:17:50 10° NNE
Resurs 01 Rocket 2.5 19:11:23 32° SSW 19:12:58 46° W 19:17:15 10° NNW
Cosmos 1500 3.8 19:15:02 56° WNW 19:15:02 56° WNW 19:18:52 10° N
Landsat 7 3.7 19:16:11 86° ESE 19:16:16 88° ENE 19:21:05 10° NNW
NOSS 2-3 (D) 4.1 19:12:26 10° WSW 19:17:22 83° NNW 19:18:48 53° ENE
CENTAUR R/B 3.7 19:11:28 10° WNW 19:18:46 48° SW 19:22:39 30° S
Cosmos 2208 Rocket 4.0 19:13:44 10° SW 19:19:08 83° NW 19:24:29 10° NE
Cosmos 1025 Rocket 4.2 19:15:04 10° N 19:17:58 33° NNE 19:17:58 33° NNE
Meteor 1-11 Rocket 3.6 19:13:52 10° SSW 19:19:26 85° WNW 19:25:01 10° NNE
Cosmos 1975 Rocket 3.2 19:15:38 10° NNW 19:19:24 66° NNW 19:19:24 66° NNW
USA 229 DEB 3.8 19:13:54 10° W 19:20:45 76° N 19:23:40 39° ENE
USA 229 3.8 19:14:01 10° W 19:20:52 76° N 19:23:45 39° ENE
Cosmos 1733 Rocket 3.5 19:25:04 52° WSW 19:25:46 61° WNW 19:30:07 10° N
NOSS 3-1 (A) 3.7 19:21:24 10° W 19:27:40 79° N 19:30:28 40° ENE
Lacrosse 4 Rocket 2.8 19:27:56 10° WNW 19:32:00 35° N 19:32:19 34° NNE
Cosmos 1570 Rocket 4.4 19:28:17 10° SW 19:33:33 64° NW 19:38:51 10° NNE
ATLAS 3B R/B 3.2 19:27:32 10° WNW 19:33:57 50° SW 19:35:31 42° S
Meteor 1-21 4.1 19:30:00 10° NNW 19:35:46 84° ENE 19:36:02 81° ESE
Timation 1 Rocket 4.2 19:30:03 10° NW 19:36:07 78° SW 19:36:42 71° S
Cosmos 540 Rocket 3.5 19:33:24 10° SW 19:38:34 75° NW 19:43:46 10° NNE
Cosmos 1844 4.3 19:36:24 10° NW 19:41:45 45° NNE 19:42:03 44° NE
Cosmos 2297 Rocket 4.2 19:39:21 10° NW 19:43:34 22° WSW 19:46:50 13° SW
Cosmos 2180 Rocket 4.4 19:42:43 68° S 19:43:35 84° E 19:49:53 10° NNE
SPOT 5 3.0 19:45:19 76° NNW 19:45:19 76° NNW 19:49:58 10° NNW
DMSP B5D2-2 4.3 19:41:38 10° NNE 19:46:53 69° WNW 19:48:06 51° SW
Cosmos 1244 Rocket 4.5 19:42:31 10° NNW 19:48:42 67° ENE 19:48:42 67° ENE
Cosmos 1943 Rocket 3.6 19:44:31 10° W 19:49:33 33° NNW 19:53:00 18° NE
APEX 4.4 19:44:02 10° SW 19:49:48 83° NW 19:56:46 10° NE
NOSS 2-3 (C) 4.3 19:46:34 10° W 19:51:42 75° N 19:52:06 71° NNE
Spot 2 Rocket 4.4 19:51:23 40° SW 19:52:14 43° W 19:57:08 10° NNW
SPOT 1/Viking Rocket 3.9 19:55:19 59° WSW 19:55:21 59° WSW 20:00:29 10° NNW
Cosmos 1809 Rocket 4.5 19:49:55 10° NNW 19:55:41 66° NE 19:55:41 66° NE
Terra 2.4 19:57:30 54° NNW 19:57:30 54° NNW 20:01:11 10° NNW
Cosmos 2266 Rocket 4.3 19:51:30 10° NNW 19:57:45 64° W 19:59:05 52° SW
Cosmos 2278 Rocket 3.3 19:54:39 10° NW 19:59:52 35° NNE 20:00:43 33° NE
Cosmos 2227 Rocket 4.4 19:58:45 10° WNW 20:02:30 18° W 20:05:17 13° SW
Cosmos 1745 Rocket 4.4 19:59:04 10° N 20:04:44 52° NE 20:04:44 52° NE
SeaSat 1 4.0 20:04:46 26° NNE 20:05:37 27° N 20:09:44 10° NW
NOSS 3-1 (C) 3.8 20:12:17 10° W 20:18:47 76° N 20:19:35 69° ENE
Meteor 2-5 Rocket 4.5 20:15:53 10° NNW 20:20:42 46° NNE 20:20:42 46° NNE
ERS-1 Rocket 4.2 20:34:05 37° W 20:34:05 37° W 20:38:14 10° NNW
CZ-2C R/B 3.7 20:32:00 10° NNE 20:37:15 44° WNW 20:38:39 37° W
Cosmos 1844 Rocket 3.3 20:33:32 10° NW 20:37:58 55° NNW 20:37:58 55° NNW
USA 234 4.4 20:42:41 31° WSW 20:42:41 31° WSW 20:47:18 10° W
Cosmos 2263 Rocket 3.2 20:37:05 10° NW 20:41:27 40° W 20:41:27 40° W
Cosmos 2369 Rocket 3.8 20:47:00 10° WNW 20:52:06 32° N 20:54:07 25° NNE
Mayak 1.7 20:52:07 10° NNE 20:52:17 11° NNE 20:52:17 11° NNE
Lacrosse 4 Rocket 3.9 21:07:05 10° NW 21:08:38 21° NW 21:08:38 21° NW
USA 229 DEB 3.9 21:05:08 10° WNW 21:11:06 68° WNW 21:11:06 68° WNW
USA 229 3.9 21:05:16 10° WNW 21:11:12 67° WNW 21:11:12 67° WNW
SL-16 R/B 4.1 21:17:24 25° NE 21:18:11 25° NE 21:23:09 10° NNW
NOSS 3-1 (A) 4.0 21:12:24 10° WNW 21:17:55 65° NW 21:17:55 65° NW
Cosmos 1943 Rocket 3.6 21:29:43 10° NW 21:34:32 32° N 21:34:32 32° N
Terra 4.2 21:36:22 19° WNW 21:36:22 19° WNW 21:38:28 10° NW
SeaSat 1 4.3 21:44:33 28° NNW 21:44:33 28° NNW 21:47:08 10° NW
Cosmos 2278 Rocket 3.5 21:39:10 10° NW 21:42:33 37° NNW 21:42:33 37° NNW
Cosmos 2322 Rocket 4.4 21:49:18 16° NE 21:49:18 16° NE 21:50:24 10° NE
ATLAS 2AS CENTAUR R/B 4.2 21:58:04 30° ENE 21:58:04 30° ENE 22:01:33 10° ENE
Cosmos 1697 Rocket 4.4 22:07:25 27° NNE 22:07:25 27° NNE 22:10:06 10° NE
Cosmos 2360 Rocket 4.4 22:12:00 16° NE 22:12:00 16° NE 22:13:11 10° NE
Cosmos 1980 Rocket 4.0 22:17:46 25° NNE 22:17:46 25° NNE 22:20:10 10° NE
Mayak 1.7 22:27:59 10° N 22:28:52 15° N 22:28:52 15° N
Cosmos 2369 Rocket 3.7 22:32:04 10° NW 22:35:55 34° NNW 22:35:55 34° NNW
SL-16 R/B 3.8 22:54:09 29° NE 22:54:09 29° NE 22:56:50 10° NE
SL-16 R/B 3.3 23:02:29 48° N 23:02:29 48° N 23:07:06 10° NNW
Cosmos 2344 3.8 23:06:45 73° ENE 23:06:45 73° ENE 23:15:20 10° ENE
CZ-2D R/B 4.2 23:05:34 10° NE 23:07:50 19° ENE 23:07:50 19° ENE
Cosmos 1943 Rocket 4.1 23:14:00 10° NW 23:16:03 23° NW 23:16:03 23° NW
Resurs 1-4 Rocket 4.1 23:16:02 10° NNE 23:18:43 23° ENE 23:18:43 23° ENE
Cosmos 2322 Rocket 3.5 23:31:05 37° NNE 23:31:05 37° NNE 23:34:39 10° NE
Cosmos 2219 Rocket 3.7 23:36:02 31° NE 23:36:02 31° NE 23:38:57 10° NE
Cosmos 2333 Rocket 3.7 23:36:43 32° NE 23:36:43 32° NE 23:39:43 10° NE
Cosmos 2237 Rocket 3.9 23:41:42 25° ENE 23:41:42 25° ENE 23:44:25 10° NE
ATLAS 2AS CENTAUR R/B 3.0 23:45:30 74° NNE 23:45:30 74° NNE 23:52:49 10° E
Cosmos 1697 Rocket 4.2 23:49:07 31° NNW 23:49:45 32° N 23:54:48 10° ENE
Cosmos 2360 Rocket 3.4 23:53:44 40° NNE 23:53:44 40° NNE 23:57:24 10° NE
